Weather History for Lexington, KY

Change the Weather History Date:

Monday, December 24, 2012

  Actual Average Record
Temperature  
Mean Temperature 43 °F 34 °F  
Max Temperature 49 °F 42 °F 68 °F (1964)
Min Temperature 37 °F 26 °F -10 °F (1983)
Degree Days  
Heating Degree Days 22 31  
Month to date heating degree days 475 680  
Since 1 July heating degree days 1537 1567  
Cooling Degree Days 0 0  
Month to date cooling degree days 0 0  
Year to date cooling degree days 1359 1190  
Moisture  
Dew Point 43 °F    
Average Humidity 93    
Maximum Humidity 100    
Minimum Humidity 86    
Precipitation  
Precipitation 0.07 in 0.12 in 1.97 in (2008)
Month to date precipitation 5.54 3.09  
Year to date precipitation 41.61 44.33  
Snow  
Snow 0.00 in 0.10 in 9.00 in (1939)
Month to date snowfall 0.3 1.7  
Since 1 July snowfall 0.3 2.0  
Snow Depth 0.00 in    
Sea Level Pressure  
Sea Level Pressure 29.86 in    
Wind  
Wind Speed 8 mph (SW)    
Max Wind Speed 16 mph    
Max Gust Speed 20 mph    
Visibility 6 miles    
Events Rain    
T = Trace of Precipitation, MM = Missing Value Source: NWS Daily Summary

Daily Weather History Graph

Daily Weather History Graph

Search for Another Location

Airport:

Trip Planner

Search our weather history database for the weather conditions in past years. The results will help you decide how hot, cold, wet, or windy it might be!

Date:

Astronomy

Dec. 24, 2012 Rise Set
Actual Time 7:52 AM EST 5:24 PM EST
Civil Twilight 7:22 AM EST 5:53 PM EST
Nautical Twilight 6:49 AM EST 6:26 PM EST
Astronomical Twilight 6:17 AM EST 6:58 PM EST
Moon 2:49 PM EST (12/24) 4:31 AM EST (12/24)
Length of Visible Light 10h 30m
Length of Day
9h 31m
Waxing Gibbous, 88% of the Moon is Illuminated
Dec 24
Waxing Gibbous
Dec 28
Full
Jan 4
Last Quarter
Jan 11
New
Jan 18
First Quarter

Hourly Weather History & Observations

Time (EST) Temp. Windchill Dew Point Humidity Pressure Visibility Wind Dir Wind Speed Gust Speed Precip Events Conditions
12:03 AM 42.8 °F 38.0 °F 39.2 °F 87% 29.92 in 10.0 mi South 8.1 mph - N/A   Overcast
12:11 AM 42.8 °F 38.6 °F 39.2 °F 87% 29.92 in 10.0 mi South 6.9 mph - N/A   Overcast
12:54 AM 42.1 °F 37.7 °F 39.9 °F 92% 29.91 in 10.0 mi SSE 6.9 mph - N/A   Overcast
1:30 AM 42.8 °F 39.3 °F 42.8 °F 100% 29.90 in 4.0 mi SSE 5.8 mph - N/A   Overcast
1:47 AM 41.0 °F 38.0 °F 41.0 °F 100% 29.89 in 2.0 mi SE 4.6 mph - N/A   Overcast
1:54 AM 41.0 °F 36.4 °F 41.0 °F 100% 29.90 in 1.2 mi ESE 6.9 mph - N/A   Overcast
2:26 AM 42.8 °F 39.3 °F 42.8 °F 100% 29.89 in 0.8 mi SE 5.8 mph - N/A   Overcast
2:46 AM 42.8 °F 40.1 °F 42.8 °F 100% 29.89 in 1.0 mi SE 4.6 mph - N/A   Overcast
2:54 AM 42.1 °F 39.2 °F 42.1 °F 100% 29.89 in 1.5 mi SE 4.6 mph - 0.00 in Rain Light Rain
3:05 AM 42.8 °F 40.1 °F 42.8 °F 100% 29.88 in 2.5 mi SE 4.6 mph - 0.00 in Rain Light Rain
3:29 AM 42.8 °F 39.3 °F 42.8 °F 100% 29.87 in 3.0 mi SE 5.8 mph - 0.00 in   Overcast
3:54 AM 42.1 °F 38.4 °F 42.1 °F 100% 29.86 in 4.0 mi SE 5.8 mph - 0.00 in   Overcast
4:43 AM 42.8 °F 38.6 °F 42.8 °F 100% 29.84 in 2.5 mi SE 6.9 mph - 0.00 in Rain Light Rain
4:54 AM 43.0 °F 38.8 °F 43.0 °F 100% 29.85 in 2.5 mi SE 6.9 mph - 0.01 in Rain Rain
5:21 AM 42.8 °F 38.6 °F 42.8 °F 100% 29.83 in 3.0 mi SSE 6.9 mph - 0.02 in Rain Light Rain
5:54 AM 43.0 °F 38.8 °F 43.0 °F 100% 29.82 in 6.0 mi SE 6.9 mph - 0.04 in Rain Light Rain
6:54 AM 43.0 °F 38.8 °F 43.0 °F 100% 29.81 in 5.0 mi SE 6.9 mph - 0.01 in Rain Light Rain
7:54 AM 43.0 °F 38.2 °F 43.0 °F 100% 29.82 in 6.0 mi South 8.1 mph - 0.00 in   Overcast
8:05 AM 42.8 °F 38.0 °F 42.8 °F 100% 29.81 in 4.0 mi South 8.1 mph - N/A   Overcast
8:15 AM 42.8 °F 37.5 °F 42.8 °F 100% 29.80 in 1.8 mi SSE 9.2 mph - 0.00 in Rain Light Rain
8:52 AM 42.8 °F 38.0 °F 42.8 °F 100% 29.79 in 2.5 mi South 8.1 mph - 0.00 in   Overcast
8:54 AM 43.0 °F 38.2 °F 43.0 °F 100% 29.81 in 2.5 mi South 8.1 mph - 0.00 in   Overcast
9:21 AM 42.8 °F 38.0 °F 42.8 °F 100% 29.79 in 1.5 mi South 8.1 mph - N/A   Overcast
9:54 AM 44.1 °F 39.5 °F 44.1 °F 100% 29.81 in 1.2 mi South 8.1 mph - N/A   Overcast
10:54 AM 44.1 °F 40.1 °F 44.1 °F 100% 29.82 in 1.0 mi SSW 6.9 mph - N/A   Overcast
11:02 AM 44.6 °F 41.4 °F 44.6 °F 100% 29.81 in 0.8 mi SW 5.8 mph - N/A   Overcast
11:11 AM 44.6 °F 40.7 °F 44.6 °F 100% 29.81 in 1.0 mi SSW 6.9 mph - N/A   Overcast
11:54 AM 45.0 °F 40.6 °F 45.0 °F 100% 29.81 in 1.8 mi SW 8.1 mph - 0.01 in   Overcast
12:03 PM 46.4 °F 41.9 °F 46.4 °F 100% 29.80 in 2.0 mi SW 9.2 mph - N/A   Overcast
12:54 PM 46.9 °F - 46.9 °F 100% 29.79 in 3.0 mi WSW 6.9 mph - N/A   Overcast
1:12 PM 48.2 °F - 46.4 °F 93% 29.78 in 10.0 mi West 9.2 mph - N/A   Overcast
1:20 PM 48.2 °F - 46.4 °F 93% 29.78 in 10.0 mi West 9.2 mph - N/A   Overcast
1:54 PM 48.9 °F - 48.0 °F 97% 29.78 in 10.0 mi West 11.5 mph - N/A   Overcast
2:46 PM 48.2 °F - 46.4 °F 93% 29.78 in 10.0 mi West 10.4 mph - N/A   Overcast
2:54 PM 48.0 °F - 46.0 °F 93% 29.79 in 10.0 mi West 10.4 mph - N/A   Overcast
3:54 PM 46.9 °F - 45.0 °F 93% 29.81 in 9.0 mi WNW 9.2 mph - N/A   Overcast
4:54 PM 46.9 °F - 45.0 °F 93% 29.84 in 9.0 mi West 5.8 mph - N/A   Overcast
5:01 PM 46.4 °F 43.5 °F 44.6 °F 93% 29.83 in 9.0 mi WSW 5.8 mph - N/A   Overcast
5:54 PM 46.9 °F - 45.0 °F 93% 29.85 in 9.0 mi SW 3.5 mph - N/A   Overcast
6:05 PM 46.4 °F 44.3 °F 44.6 °F 93% 29.85 in 9.0 mi SW 4.6 mph - N/A   Overcast
6:12 PM 46.4 °F 44.3 °F 44.6 °F 93% 29.86 in 9.0 mi WSW 4.6 mph - N/A   Overcast
6:54 PM 46.0 °F 43.1 °F 45.0 °F 96% 29.88 in 8.0 mi WSW 5.8 mph - N/A   Mostly Cloudy
7:08 PM 44.6 °F 40.7 °F 44.6 °F 100% 29.88 in 8.0 mi WSW 6.9 mph - N/A   Mostly Cloudy
7:19 PM 46.4 °F 42.4 °F 44.6 °F 93% 29.88 in 8.0 mi West 8.1 mph - N/A   Scattered Clouds
7:50 PM 46.4 °F 42.9 °F 44.6 °F 93% 29.89 in 8.0 mi West 6.9 mph - N/A   Mostly Cloudy
7:54 PM 45.0 °F 41.8 °F 44.1 °F 97% 29.90 in 8.0 mi West 5.8 mph - N/A   Mostly Cloudy
8:34 PM 44.6 °F 40.2 °F 42.8 °F 93% 29.91 in 8.0 mi WNW 8.1 mph - N/A   Overcast
8:47 PM 44.6 °F 40.2 °F 42.8 °F 93% 29.92 in 8.0 mi WNW 8.1 mph - N/A   Overcast
8:54 PM 45.0 °F 40.6 °F 43.0 °F 93% 29.93 in 8.0 mi WNW 8.1 mph - N/A   Overcast
9:08 PM 42.8 °F 36.2 °F 41.0 °F 93% 29.93 in 7.0 mi NW 12.7 mph - N/A   Overcast
9:23 PM 42.8 °F 36.6 °F 39.2 °F 87% 29.94 in 7.0 mi WNW 11.5 mph - N/A   Overcast
9:40 PM 41.0 °F 35.2 °F 37.4 °F 87% 29.94 in 8.0 mi WNW 9.2 mph - N/A   Overcast
9:54 PM 41.0 °F 35.2 °F 37.9 °F 89% 29.96 in 8.0 mi WNW 9.2 mph - N/A   Overcast
10:54 PM 37.9 °F 32.1 °F 36.0 °F 93% 29.99 in 8.0 mi WNW 8.1 mph - N/A   Overcast
11:54 PM 37.0 °F 29.3 °F 34.0 °F 89% 30.01 in 7.0 mi WNW 11.5 mph - N/A   Overcast